This is the latest recevied weather packets stored in our database for station/object S56VIL-11. If no packets are shown the sender has not sent any weather packets the latest 10 day(s).
| Time | Temp. | Humidity | Pressure | Rain* | Wind** | Luminosity | Snow |
|---|---|---|---|---|---|---|---|
| 1777379947 | 22.22° C | 49% | 1028.4 hPa | - | - | - | - |
| 1777379050 | 21.11° C | 50% | 1028.6 hPa | - | - | - | - |
| 1777378147 | 21.11° C | 49% | 1028.5 hPa | - | - | - | - |
| 1777377250 | 22.22° C | 49% | 1028.6 hPa | - | - | - | - |
| 1777376346 | 21.67° C | 50% | 1028.6 hPa | - | - | - | - |
| 1777375449 | 22.22° C | 50% | 1028.8 hPa | - | - | - | - |
| 1777374546 | 22.78° C | 49% | 1029 hPa | - | - | - | - |
| 1777373672 | 22.78° C | 49% | 1028.9 hPa | - | - | - | - |
| 1777372746 | 23.33° C | 49% | 1029 hPa | - | - | - | - |
| 1777371849 | 22.78° C | 50% | 1029.1 hPa | - | - | - | - |
| 1777370945 | 22.78° C | 51% | 1029.2 hPa | - | - | - | - |
| 1777370048 | 22.22° C | 50% | 1029.2 hPa | - | - | - | - |
| 1777369145 | 20.56° C | 51% | 1029.3 hPa | - | - | - | - |
| 1777368248 | 19.44° C | 51% | 1029.4 hPa | - | - | - | - |
| 1777367344 | 18.89° C | 51% | 1029.4 hPa | - | - | - | - |
| 1777366447 | 20° C | 51% | 1029.5 hPa | - | - | - | - |
| 1777365544 | 18.89° C | 52% | 1029.5 hPa | - | - | - | - |
| 1777364647 | 16.11° C | 53% | 1029.4 hPa | - | - | - | - |
| 1777363744 | 17.22° C | 52% | 1029.4 hPa | - | - | - | - |
| 1777362847 | 15.56° C | 53% | 1029.3 hPa | - | - | - | - |
| 1777361943 | 14.44° C | 54% | 1029.4 hPa | - | - | - | - |
| 1777361046 | 13.89° C | 54% | 1029.3 hPa | - | - | - | - |
| 1777360143 | 13.33° C | 55% | 1029.4 hPa | - | - | - | - |
| 1777359246 | 12.78° C | 54% | 1029.4 hPa | - | - | - | - |
| 1777358343 | 12.22° C | 55% | 1029.4 hPa | - | - | - | - |
* Rain since midnight (hover to see other rain measurements)
** Current wind speed in m/s (hover to see current wind gust speed)